User: anonymous   Login
Location: Cussy
(47.0410°N, 4.6412°E)
Time: 07:50:19
(UTC+00:00)
Language:

H-2A R/B - Orbit

View from above orbital plane
View from above orbital plane
View from above satellite
View from above satellite

Ground track
Ground track

The orbit data is extracted from the following two-line orbital elements,

1 38341U 12025E   21057.42553700  .00000338  00000-0  46882-4 0  9996
2 38341  98.5219 235.3303 0056305 135.3567 225.2200 14.84175601475111
Epoch (UTC): 26 February 2021 10:12:46
Eccentricity: 0.0056305
inclination: 98.5219°
perigee height: 577 km
apogee height: 655 km
right ascension of ascending node: 235.3303°
argument of perigee: 135.3567°
revolutions per day: 14.84175601
mean anomaly at epoch: 225.2200°
orbit number at epoch: 47511

The dashed part of the orbit path shows where the satellite is in the earth's shadow,  

DLR